Home > Weather > Yaoundé > Past weeks

Flag for Cameroon Weather for the Past 2 Weeks in Yaoundé, Cameroon

Now
84 °F

Partly sunny.


Feels Like: 87 °F
Forecast: 67 / 88 °F
Wind: 6 mph from West

Location: Yaounde Airport

Current Time: Feb 12, 2016 at 5:14:23 PM

Latest Report: Feb 12, 2016 at 4:00 PM


Visibility: 2 mi

Pressure: 29.95 "Hg (27.62 "Hg at 717m altitude)

Humidity: 58%

Dew point: 68 °F

Location of YaoundéLocation

Historic Weather in Yaoundé — Graph

°F

Yaoundé Temperature Yesterday

Maximum temperature yesterday: 91 °F (at 3:00 PM)
Minimum temperature yesterday: 73 °F (at 7:00 AM)
Average temperature yesterday: 81 °F

High & Low Weather Summary for the Past Weeks

 TemperatureHumidityPressure
High93 °F (Feb 5, 3:00 PM)100% (Feb 1, 6:00 AM)30.12 "Hg (Feb 1, 6:00 AM)
Low57 °F (Jan 30, 6:00 AM)24% (Jan 29, 11:00 AM)29.89 "Hg (Feb 2, 3:00 PM)
Average78 °F69%30.01 "Hg
* Reported Jan 28 4:00 PM — Feb 12 4:00 PM, Yaoundé, Weather by CustomWeather, © 2016

Note: Actual official high and low records may vary slightly from our data, if they occured in-between our weather recording intervals... More about our weather records

Advertising

Yaoundé Weather History for the Previous 24 Hours

 ConditionsComfort  
Time TempWeatherWind HumidityBarometerVisibility
4:00 PM
Fri, Feb 12
84 °FPartly sunny.6 mph58%29.95 "Hg2 mi
3:00 PM84 °FPartly sunny.6 mph55%29.95 "Hg2 mi
2:00 PM86 °FPartly sunny.6 mph52%29.98 "Hg2 mi
1:00 PM84 °FPartly sunny.5 mph55%29.98 "Hg2 mi
12:00 PM84 °FPartly sunny.3 mph55%30.01 "Hg2 mi
11:00 AM82 °FPartly sunny.2 mph62%30.04 "Hg2 mi
10:00 AM81 °FPartly sunny.1 mph70%30.04 "Hg2 mi
9:00 AM77 °FPartly sunny.2 mph79%30.07 "Hg2 mi
8:00 AM73 °FFog.2 mph89%30.04 "Hg2 mi
7:00 AM72 °FFog.2 mph94%30.04 "Hg2 mi
6:00 AM72 °FFog.No wind94%30.01 "Hg1 mi
5:00 AM72 °FFog.5 mph88%29.98 "Hg2 mi
4:00 AM72 °FPassing clouds.3 mph94%29.98 "Hg2 mi
2:00 AM73 °FFog.6 mph94%29.98 "Hg1 mi
1:00 AM73 °FFog.5 mph94%29.98 "Hg1 mi
12:00 AM75 °FFog.5 mph89%30.01 "Hg1 mi
11:00 PM
Thu, Feb 11
75 °FFog.5 mph89%30.01 "Hg1 mi
10:00 PM77 °FFog.2 mph83%30.01 "Hg1 mi
9:00 PM79 °FHaze.2 mph74%30.01 "Hg1 mi
8:00 PM81 °FHaze.2 mph70%29.98 "Hg1 mi
7:00 PM81 °FHaze.3 mph62%29.95 "Hg1 mi
6:00 PM86 °FHaze.2 mph43%29.92 "Hg2 mi
5:00 PM90 °FHaze.2 mph33%29.89 "Hg2 mi
Weather by CustomWeather, © 2016

See weather overviewHow to use our weather pages